Regional Weather Roundup
Issued by NWS New Orleans/Baton Rouge, LA

Home | Current Version | Previous Version | Graphics & Text | Print | Product List | Glossary On
Versions: 1 2 3 4 5 6 7 8 9 10 11 12 13 14 15 16 17 18 19 20 21 22 23 24 25 26 27 28 29 30 31 32 33 34 35 36 37 38 39 40 41 42 43 44 45 46 47 48 49 50
015
ASUS44 KLIX 272307
RWRLIX
NEW ORLEANS REGIONAL WEATHER ROUNDUP
NATIONAL WEATHER SERVICE NEW ORLEANS LA
600 PM CDT FRI MAR 27 2015

NOTE: "FAIR" INDICATES FEW OR NO CLOUDS BELOW 12,000 FEET WITH NO
      SIGNIFICANT WEATHER AND/OR OBSTRUCTIONS TO VISIBILITY.
      SKY/WX - SKY CONDITION AND SIGNIFICANT WEATHER.
      TMP - AIR TEMPERATURE.     DP    - DEWPOINT TEMPERATURE.
      RH  - RELATIVE HUMIDITY.   PRES  - PRESSURE.
      HI  - HEAT INDEX.          WCI   - WIND CHILL INDEX.

*  THESE STATIONS ARE NOT NWS OR FAA STATIONS AND ARE NOT UNDER
   NWS QUALITY CONTROL.

LAZ038-040-048-061>063-065>067-069-280000-
SOUTHEAST LOUISIANA

CITY           SKY/WX    TMP DP  RH WIND       PRES   REMARKS
N.O. AUDUBON     N/A     70 N/A N/A MISG        N/A
N.O. INTL ARPT MOSUNNY   68  38  33 NW14      30.01S
N.O. LAKEFRONT SUNNY     71  42  35 NW20      30.01S
SLIDELL        SUNNY     69  36  29 VRB7      29.99S
BATON ROUGE    SUNNY     69  39  33 W6        30.01F
BOOTHVILLE     SUNNY     67  40  37 NW7       30.02S
BELLE CHASSE   MOSUNNY   69  35  28 VRB6      30.00S
BOGALUSA*        N/A     70  33  25 NW16G25   30.01S
GALLIANO*      CLEAR     70  36  28 NW9       30.03S
NEW ROADS*       N/A     70  39  33 NW10      30.01F
GONZALES*        N/A     69  40  35 N6        30.01F
HAMMOND*       SUNNY     70  34  26 NW15      30.03S
HOUMA*         NOT AVBL
PORT FOURCHON* NOT AVBL

$$

MSZ070-080>082-280000-
SOUTHERN MISSISSIPPI

CITY           SKY/WX    TMP DP  RH WIND       PRES   REMARKS
MCCOMB         SUNNY     66  39  37 N9        30.02R
GULFPORT       SUNNY     67  35  30 NW16G25   29.98R
BILOXI         SUNNY     67  36  31 NW13      29.98R
PASCAGOULA     SUNNY     67  34  29 NW9       29.98R
STENNIS ARPT*  SUNNY     68  28  22 NW12      29.99S

$$

COASTAL OBSERVATIONS
LAKE AND NEARSHORE STATIONS

STATION/POSITION TIME  TEMP    WIND        PRES    WAVE
                       AIR SEA DIR/SP/G            HT/PER
                 (UTC) (F)     (DEG/KT/KT) (MB)    (FT/S)
PASCAGOULA       2200   68     320/ 12/ 19 1014.2
WAVELAND YACHT   2200   67 67  330/ 15/ 19 1015.1
GRAND ISLE       2200   67 69  320/  6/  7 1016.2
SOUTHWEST PASS   2200   68 53  310/ 12/ 15 1017.2
NEW CANAL        2200   69     280/  4/  9 1016.6
SHELL BEACH      2200   65 69  310/ 11/ 14 1016.1

OFFSHORE STATIONS

STATION/POSITION TIME  TEMP    WIND        PRES    WAVE
                       AIR SEA DIR/SP/G            HT/PER
                 (UTC) (F)     (DEG/KT/KT) (MB)    (FT/S)
64 S DAUPHIN ISL 2250   63 71  310/ 19/ 23 1016.0    4/ 5

$$




USA.gov is the U.S. government's official web portal to all federal, state and local government web resources and services.